NOZ47Y ENVA-ENGM

Flight info

Callsign NOZ47Y
Flight time N/A
Altitude 31000
Route UTUNA DCT TUTBI DCT BELGU
Aircraft B738/M-SDE2E3FGHIRWXY/LB1

Departure

Time 2026-05-06 19:26
Airport Trondheim Airport, Værnes (ENVA)

Arrival

Time N/A
Airport Oslo-Gardermoen International Airport (ENGM)
Time Latitude Longitude Altitude Speed Heading
2026-05-06 18:55 63.45500 10.91825 38 ft 0 kts 180°
2026-05-06 19:17 63.45501 10.91825 38 ft 2 kts 180°
2026-05-06 19:17 63.45527 10.91826 38 ft 4 kts 180°
2026-05-06 19:18 63.45539 10.91826 36 ft 1 kts 180°
2026-05-06 19:21 63.45538 10.91826 38 ft 1 kts 180°
2026-05-06 19:21 63.45529 10.91850 34 ft 3 kts 107°
2026-05-06 19:21 63.45546 10.91882 37 ft 5 kts 20°
2026-05-06 19:21 63.45590 10.91935 39 ft 9 kts 52°
2026-05-06 19:22 63.45594 10.92102 40 ft 13 kts 91°
2026-05-06 19:22 63.45594 10.92319 40 ft 15 kts 90°
2026-05-06 19:22 63.45594 10.92582 42 ft 18 kts 91°
2026-05-06 19:22 63.45593 10.92846 46 ft 17 kts 90°
2026-05-06 19:23 63.45593 10.93104 49 ft 16 kts 90°
2026-05-06 19:23 63.45592 10.93352 53 ft 16 kts 90°
2026-05-06 19:23 63.45592 10.93592 54 ft 15 kts 90°
2026-05-06 19:23 63.45599 10.93818 54 ft 14 kts 70°
2026-05-06 19:24 63.45666 10.93988 57 ft 16 kts 43°
2026-05-06 19:24 63.45734 10.94107 58 ft 9 kts
2026-05-06 19:24 63.45757 10.94010 58 ft 0 kts 269°
2026-05-06 19:24 63.45757 10.94009 58 ft 0 kts 269°
2026-05-06 19:25 63.45757 10.93735 55 ft 52 kts 270°
2026-05-06 19:25 63.45759 10.92364 41 ft 122 kts 270°
2026-05-06 19:25 63.45763 10.90038 143 ft 168 kts 266°
2026-05-06 19:26 63.45792 10.87397 917 ft 171 kts 270°
2026-05-06 19:26 63.45825 10.84719 1857 ft 173 kts 271°
2026-05-06 19:26 63.45854 10.81935 2618 ft 187 kts 271°
2026-05-06 19:26 63.45704 10.78931 3053 ft 210 kts 246°
2026-05-06 19:27 63.44626 10.76585 3422 ft 231 kts 202°
2026-05-06 19:27 63.42972 10.76336 3792 ft 253 kts 167°
2026-05-06 19:27 63.41235 10.77395 4522 ft 264 kts 167°
2026-05-06 19:27 63.39445 10.78326 5536 ft 264 kts 169°
2026-05-06 19:28 63.37641 10.79161 6521 ft 266 kts 170°
2026-05-06 19:28 63.35832 10.79933 7426 ft 269 kts 171°
2026-05-06 19:28 63.33979 10.80680 8349 ft 272 kts 171°
2026-05-06 19:28 63.32105 10.81405 9274 ft 275 kts 171°
2026-05-06 19:29 63.30207 10.82120 10180 ft 278 kts 171°
2026-05-06 19:29 63.28241 10.82846 10603 ft 299 kts 171°
2026-05-06 19:29 63.26106 10.83624 10921 ft 320 kts 172°
2026-05-06 19:29 63.23880 10.84431 11636 ft 327 kts 172°
2026-05-06 19:30 63.21624 10.85246 12517 ft 329 kts 172°
2026-05-06 19:30 63.19352 10.86064 13391 ft 332 kts 172°
2026-05-06 19:30 63.17055 10.86887 14198 ft 336 kts 172°
2026-05-06 19:30 63.14726 10.87720 14932 ft 340 kts 172°
2026-05-06 19:31 63.12358 10.88132 15645 ft 344 kts 187°
2026-05-06 19:31 63.10046 10.86808 16424 ft 344 kts 199°
2026-05-06 19:31 63.05389 10.83771 17850 ft 354 kts 196°
2026-05-06 19:32 63.02999 10.82321 18543 ft 358 kts 196°
2026-05-06 19:32 63.00589 10.80866 19204 ft 360 kts 196°
2026-05-06 19:32 62.98190 10.79416 19826 ft 364 kts 196°
2026-05-06 19:32 62.95734 10.77928 20466 ft 367 kts 197°
2026-05-06 19:33 62.93258 10.76426 21113 ft 370 kts 197°
2026-05-06 19:33 62.90766 10.74915 21762 ft 373 kts 197°
2026-05-06 19:33 62.89071 10.73887 22181 ft 375 kts 197°
2026-05-06 19:33 62.85714 10.71857 22963 ft 380 kts 198°
2026-05-06 19:34 62.83988 10.70820 23367 ft 383 kts 197°
2026-05-06 19:34 62.81375 10.69876 23844 ft 390 kts 186°
2026-05-06 19:34 62.78651 10.69727 24345 ft 392 kts 184°
2026-05-06 19:34 62.75908 10.69651 24786 ft 396 kts 184°
2026-05-06 19:35 62.73145 10.69560 25220 ft 399 kts 184°
2026-05-06 19:35 62.70359 10.69437 25662 ft 402 kts 185°
2026-05-06 19:35 62.67561 10.69286 26181 ft 402 kts 185°
2026-05-06 19:35 62.64774 10.69119 26803 ft 399 kts 186°
2026-05-06 19:36 62.62003 10.68941 27421 ft 397 kts 186°
2026-05-06 19:36 62.59242 10.68758 27979 ft 397 kts 186°
2026-05-06 19:36 62.56482 10.68570 28538 ft 396 kts 186°
2026-05-06 19:36 62.53730 10.68382 29125 ft 395 kts 186°
2026-05-06 19:37 62.50988 10.68196 29681 ft 394 kts 187°
2026-05-06 19:37 62.48248 10.68009 30172 ft 394 kts 187°
2026-05-06 19:37 62.45510 10.67824 30565 ft 394 kts 187°
2026-05-06 19:37 62.42768 10.67638 30927 ft 395 kts 187°
2026-05-06 19:38 62.37217 10.67260 30968 ft 399 kts 187°
2026-05-06 19:38 62.31715 10.66901 30955 ft 391 kts 187°
2026-05-06 19:39 62.26251 10.66534 30963 ft 395 kts 187°
2026-05-06 19:39 62.20783 10.66167 30962 ft 396 kts 187°
2026-05-06 19:40 62.15258 10.65802 30952 ft 398 kts 187°
2026-05-06 19:40 62.09741 10.65441 30947 ft 396 kts 187°
2026-05-06 19:41 62.04257 10.65081 30951 ft 393 kts 187°
2026-05-06 19:41 61.98806 10.64724 30955 ft 390 kts 188°
2026-05-06 19:42 61.93397 10.64368 30946 ft 387 kts 188°
2026-05-06 19:42 61.88050 10.64014 30950 ft 387 kts 188°
2026-05-06 19:43 61.82678 10.63660 30932 ft 381 kts 188°
2026-05-06 19:43 61.77476 10.63330 30930 ft 370 kts 188°
2026-05-06 19:44 61.72330 10.62987 30826 ft 371 kts 189°
2026-05-06 19:44 61.69758 10.62817 30586 ft 366 kts 189°
2026-05-06 19:44 61.67222 10.62655 30235 ft 363 kts 189°
2026-05-06 19:45 61.64705 10.62492 29886 ft 360 kts 189°
2026-05-06 19:45 61.62213 10.62331 29491 ft 356 kts 189°
2026-05-06 19:45 61.59740 10.62171 29078 ft 354 kts 189°
2026-05-06 19:45 61.57287 10.62008 28635 ft 351 kts 190°
2026-05-06 19:46 61.54854 10.61851 28175 ft 349 kts 190°
2026-05-06 19:46 61.52439 10.61696 27791 ft 346 kts 190°
2026-05-06 19:46 61.50046 10.61543 27438 ft 342 kts 190°
2026-05-06 19:46 61.47678 10.61392 27054 ft 340 kts 190°
2026-05-06 19:47 61.45338 10.61238 26479 ft 343 kts 190°
2026-05-06 19:47 61.42936 10.61075 25885 ft 347 kts 190°
2026-05-06 19:47 61.40512 10.60916 25330 ft 349 kts 191°
2026-05-06 19:47 61.38076 10.60759 24788 ft 351 kts 191°
2026-05-06 19:48 61.35624 10.60603 24245 ft 353 kts 191°
2026-05-06 19:48 61.33164 10.60449 23716 ft 354 kts 191°
2026-05-06 19:48 61.30701 10.60294 23120 ft 354 kts 191°
2026-05-06 19:48 61.28233 10.60137 22470 ft 355 kts 191°
2026-05-06 19:49 61.25762 10.59980 21866 ft 355 kts 190°
2026-05-06 19:49 61.23288 10.59823 21251 ft 356 kts 189°
2026-05-06 19:49 61.20792 10.60123 20617 ft 369 kts 174°
2026-05-06 19:49 61.18357 10.62077 20085 ft 377 kts 163°
2026-05-06 19:50 61.15959 10.64241 19512 ft 376 kts 164°
2026-05-06 19:50 61.13541 10.66309 18952 ft 376 kts 164°
2026-05-06 19:50 61.11150 10.68318 18408 ft 376 kts 164°
2026-05-06 19:50 61.08735 10.70341 17998 ft 370 kts 164°
2026-05-06 19:51 61.06337 10.71868 17701 ft 353 kts 177°
2026-05-06 19:51 61.03947 10.72230 17426 ft 339 kts 185°
2026-05-06 19:51 61.01614 10.72344 17135 ft 332 kts 184°
2026-05-06 19:51 60.99323 10.72500 16826 ft 326 kts 184°
2026-05-06 19:52 60.97080 10.72667 16565 ft 320 kts 184°
2026-05-06 19:52 60.94873 10.72837 16286 ft 315 kts 184°
2026-05-06 19:52 60.92699 10.73005 16005 ft 311 kts 184°
2026-05-06 19:52 60.90541 10.73170 15733 ft 310 kts 184°
2026-05-06 19:53 60.88384 10.73334 15465 ft 310 kts 183°
2026-05-06 19:53 60.86231 10.73498 15199 ft 309 kts 183°
2026-05-06 19:53 60.84081 10.73663 14934 ft 309 kts 182°
2026-05-06 19:53 60.81934 10.73829 14676 ft 309 kts 182°
2026-05-06 19:54 60.79789 10.73995 14433 ft 308 kts 182°
2026-05-06 19:54 60.77645 10.74160 14180 ft 308 kts 182°
2026-05-06 19:54 60.75504 10.74326 13932 ft 307 kts 181°
2026-05-06 19:54 60.73370 10.74491 13689 ft 307 kts 181°
2026-05-06 19:55 60.71235 10.74657 13410 ft 307 kts 181°
2026-05-06 19:55 60.69108 10.74822 13151 ft 306 kts 181°
2026-05-06 19:55 60.66993 10.74987 12876 ft 302 kts 181°
2026-05-06 19:55 60.64910 10.75149 12601 ft 298 kts 181°
2026-05-06 19:56 60.62856 10.75308 12337 ft 294 kts 181°
2026-05-06 19:56 60.60817 10.75464 12076 ft 292 kts 181°
2026-05-06 19:56 60.58812 10.75617 11746 ft 293 kts 181°
2026-05-06 19:56 60.56763 10.75774 11348 ft 295 kts 181°
2026-05-06 19:57 60.54688 10.75932 10953 ft 294 kts 181°
2026-05-06 19:57 60.52668 10.76085 10579 ft 294 kts 180°
2026-05-06 19:57 60.50626 10.76241 10192 ft 293 kts 180°
2026-05-06 19:57 60.48588 10.76396 9813 ft 293 kts 180°
2026-05-06 19:58 60.46548 10.76551 9394 ft 293 kts 180°
2026-05-06 19:58 60.44514 10.76706 8976 ft 292 kts 180°
2026-05-06 19:58 60.42486 10.76860 8573 ft 292 kts 180°
2026-05-06 19:58 60.40459 10.77014 8169 ft 291 kts 179°
2026-05-06 19:59 60.38440 10.77167 7782 ft 290 kts 179°
2026-05-06 19:59 60.36420 10.77320 7384 ft 290 kts 179°
2026-05-06 19:59 60.34406 10.77473 7049 ft 288 kts 179°
2026-05-06 19:59 60.32445 10.77623 7011 ft 275 kts 179°
2026-05-06 20:00 60.30564 10.77766 6997 ft 268 kts 179°
2026-05-06 20:00 60.28708 10.77905 7001 ft 267 kts 179°
2026-05-06 20:00 60.26839 10.78045 6990 ft 268 kts 179°
2026-05-06 20:00 60.25000 10.78184 6991 ft 259 kts 179°
2026-05-06 20:01 60.23238 10.78316 6923 ft 249 kts 179°
2026-05-06 20:01 60.21537 10.78521 6696 ft 247 kts 176°
2026-05-06 20:01 60.19799 10.78896 6304 ft 249 kts 175°
2026-05-06 20:01 60.18105 10.79281 5910 ft 248 kts 175°
2026-05-06 20:02 60.16392 10.79678 5520 ft 247 kts 175°
2026-05-06 20:02 60.14690 10.80074 5129 ft 246 kts 175°
2026-05-06 20:02 60.12997 10.80468 4731 ft 244 kts 175°
2026-05-06 20:02 60.11322 10.80868 4330 ft 242 kts 173°
2026-05-06 20:03 60.09745 10.81931 4027 ft 238 kts 150°
2026-05-06 20:03 60.08348 10.83677 4022 ft 237 kts 149°
2026-05-06 20:03 60.06950 10.85392 4015 ft 234 kts 150°
2026-05-06 20:03 60.05589 10.87047 3983 ft 223 kts 150°
2026-05-06 20:04 60.04319 10.88693 3977 ft 214 kts 140°
2026-05-06 20:04 60.03416 10.91020 3942 ft 216 kts 119°
2026-05-06 20:04 60.02686 10.93726 3678 ft 223 kts 120°
2026-05-06 20:04 60.01931 10.96443 3382 ft 224 kts 120°
2026-05-06 20:05 60.01177 10.99171 3111 ft 224 kts 116°
2026-05-06 20:05 60.00784 11.02126 3000 ft 216 kts 90°
2026-05-06 20:05 60.01091 11.04996 2997 ft 211 kts 62°
2026-05-06 20:05 60.02006 11.07228 2995 ft 207 kts 34°
2026-05-06 20:06 60.03313 11.08330 3004 ft 205 kts
2026-05-06 20:06 60.04726 11.08122 3022 ft 205 kts 344°
2026-05-06 20:06 60.06122 11.07408 3012 ft 209 kts 345°
2026-05-06 20:06 60.07532 11.06724 3037 ft 206 kts 347°
2026-05-06 20:07 60.08933 11.06355 2875 ft 201 kts 357°
2026-05-06 20:07 60.10315 11.06603 2520 ft 198 kts 12°
2026-05-06 20:07 60.11593 11.07365 2241 ft 188 kts 19°
2026-05-06 20:07 60.12753 11.08326 2063 ft 172 kts 23°
2026-05-06 20:08 60.13839 11.09458 2226 ft 192 kts 27°
2026-05-06 20:08 60.14968 11.10749 2714 ft 177 kts 29°
2026-05-06 20:08 60.16006 11.12075 3007 ft 192 kts 32°
2026-05-06 20:08 60.17068 11.13943 3758 ft 204 kts 50°